This demonstration page uses our WeatherBlox Daily Observations layout. Learn more.

Left ArrowRight Arrow

40.97296, -117.73568

Hourly Observations for March 24, 2016

Temp ( °F °C ) Dew Point ( °F °C ) Humidity (%) Winds ( mph kmh ) Pressure ( in mb ) Visibility ( mi km ) Precip ( " mm )
12:56 am 00:56 Mostly Cloudy 40 4.4 23 -5 51 51 S 10 17 30.22 1023 10 16 0.00 0.00
1:56 am 01:56 Cloudy 41 5 22 -5.6 47 47 SSW 8 13 30.21 1023 10 16 0.00 0.00
2:56 am 02:56 Clear 35 1.7 22 -5.6 59 59 S 9 15 30.20 1023 10 16 0.00 0.00
3:56 am 03:56 Clear 39 3.9 22 -5.6 50 50 S 9 15 30.18 1022 10 16 0.00 0.00
4:56 am 04:56 Clear 34 1.1 22 -5.6 61 61 S 9 15 30.16 1021 10 16 0.00 0.00
5:56 am 05:56 Mostly Clear 37 2.8 22 -5.6 54 54 SSW 10 17 30.16 1021 10 16 0.00 0.00
6:56 am 06:56 Partly Cloudy 35 1.7 21 -6.1 57 57 SW 5 7 30.19 1022 10 16 0.00 0.00
7:56 am 07:56 Mostly Cloudy 36 2.2 23 -5 59 59 S 6 9 30.19 1023 10 16 0.00 0.00
8:56 am 08:56 Partly Cloudy 45 7.2 24 -4.4 44 44 S 9 15 30.18 1022 10 16 0.00 0.00
9:56 am 09:56 Mostly Sunny 51 10.6 25 -3.9 36 36 SSE 10 17 30.16 1021 10 16 0.00 0.00
10:56 am 10:56 Partly Cloudy 54 12.2 28 -2.2 37 37 WSW 9 15 30.14 1021 10 16 0.00 0.00
11:56 am 11:56 Sunny 56 13.3 30 -1.1 37 37 W 9 15 30.11 1020 10 16 0.00 0.00
12:56 pm 12:56 Mostly Sunny 58 14.4 29 -1.7 33 33 WSW 14 22 30.09 1019 10 16 0.00 0.00
1:56 pm 13:56 Mostly Cloudy 58 14.4 26 -3.3 29 29 WNW 14 22 30.08 1019 10 16 0.00 0.00
2:56 pm 14:56 Mostly Sunny 60 15.6 25 -3.9 26 26 W 18 30 30.06 1018 10 16 0.00 0.00
3:56 pm 15:56 Mostly Sunny 60 15.6 25 -3.9 26 26 W 20 31 30.03 1017 10 16 0.00 0.00
4:56 pm 16:56 Partly Cloudy 61 16.1 22 -5.6 22 22 WNW 18 30 30.02 1017 10 16 0.00 0.00
5:56 pm 17:56 Sunny 59 15 16 -8.9 18 18 WNW 18 30 30.01 1016 10 16 0.00 0.00
6:56 pm 18:56 Sunny 54 12.2 20 -6.7 26 26 WNW 13 20 30.04 1017 10 16 0.00 0.00
7:56 pm 19:56 Clear 49 9.4 22 -5.6 35 35 VRB 7 11 30.05 1018 10 16 0.00 0.00
8:56 pm 20:56 Clear 49 9.4 22 -5.6 35 35 Calm 30.05 1018 10 16 0.00 0.00
9:56 pm 21:56 Clear 45 7.2 22 -5.6 40 40 NW 3 6 30.06 1018 10 16 0.00 0.00
10:56 pm 22:56 Clear 45 7.2 22 -5.6 40 40 WNW 7 11 30.05 1018 10 16 0.00 0.00
11:56 pm 23:56 Clear 35 1.7 21 -6.1 57 57 SSW 6 9 30.07 1018 10 16 0.00 0.00

Powered by AerisWeather